CZ-6A DEB, 60716

Orbit data source: Space-Track

CZ-6A DEB, 60716 is space debris in LEO originally from a launch on Tue, 06 Aug 2024 UTC launched from the Taiyaun Space Center, China (TSC). Debris objects in space refer to the collection of defunct objects orbiting the Earth. Examples of debris include non-operational satellites, rocket bodies, and fragments generated from explosions, collisions, or faulty payload assembly.

Loading next visibility...
Identifier
60716, 2024-140DV
Orbit
LEO
Country
Flag of CNCN / PRC
Related business
Manufacturer
SAST
Mission
Spacecraft
Bus & Motor
Unknown
Mass
Unknown
Launch date (UTC)
2024-08-06 (1 year ago)
Launch vehicle
Unknown
Launch site
Taiyaun Space Center, China (TSC)
Object type
Payload
Rocket body
Debris
Shape & HBR
Unknown shape, 0.2 m
Radar Cross Section
Medium (>0.1 m² and <1 m²)

Expand to show TLE details & history
Last TLE update: 9 hours ago

TLE from 9 hours ago
0 CZ-6A DEB
1 60716U 24140DV  25343.13682140  .00000766  00000-0  14057-3 0  9992
2 60716  89.0894 297.9817 0134706 150.8544 210.0274 14.58776009 70562
Epoch: 2025-12-09T03:17Z
TLE epoch observation values (Epoch: 2025-12-09T03:17:01.368Z)
Latitude
-0.00007°
Longitude
170.60017°
Altitude
783.09 km
Speed
7.418 km/s
True Right ascension
19h 51m 55s
True Declination
0° 00' 00"
Sunlit
Object was in daylight at epoch
Visualization orbit readout
Latitude
Unknown
Longitude
Unknown
Altitude
Unknown
Speed
Unknown
Apparent Right ascension
Unknown
Apparent Declination
Unknown
Sunlit
N/A
Visualization observer readout
Local Sidereal Time
10:15:58
Azimuth
Unknown
Elevation
Unknown
Doppler factor
Unknown
Orbital elements
Apogee altitude
789.29 km
Perigee altitude
598.757 km
Semi-major axis
7,072.16 km
Eccentricity
0.01347
Inclination
89.0894°
RAAN
297.9817°
Arg. of periapsis
150.8544°
True anomaly
209.26608°
Mean anomaly
210.0274°
Eccentric anomaly
209.64564°
Mean motion
3.64935 °/min
Orbital period
98.65 mins
BSTAR
0.00014057
Loading maneuver chart data...
Computing Atmospheric mass density...
Loading historical data...
Loading historical data...
Loading historical data...
Loading historical data...
Loading historical data...
Loading historical data...
Loading historical data...

Documentation

Showing up to 5 results
|